Wind_Speed
11 11 11 11 11 11 12 12 13 13 13 12 11 10 9 9 9 9 8 9 9 10 10 11 11 12 12 12 13 14 15 15 16 16 15 14 13 12 11 10 9 9 8
12 13 13 13 13 13 14 14 14 14 15 15 14 13 13 12 11 11 10 10 10 10 10 11 11 12 12 12 13 14 15 16 16 17 17 16 15 15 13 12 12 10 9
14 14 15 15 15 16 16 17 17 17 17 17 17 16 16 15 14 13 12 12 12 11 11 11 12 12 11 12 12 13 14 15 16 16 16 17 16 16 15 14 13 11 9
16 16 17 18 18 19 19 19 19 20 20 19 19 19 18 18 17 16 15 14 14 13 12 12 12 12 12 11 12 13 13 14 15 15 16 16 16 16 15 14 13 11 9
20 20 20 21 21 22 22 22 22 23 22 21 21 21 21 21 20 19 18 17 16 15 14 13 12 12 12 11 12 12 12 13 14 15 15 16 15 15 15 14 13 12 10
21 22 23 23 24 24 24 24 25 25 25 25 24 23 23 23 22 22 20 19 18 17 16 15 14 13 12 12 11 11 12 12 13 14 14 14 14 14 14 14 13 11 9
23 24 25 25 26 26 27 27 28 28 28 28 27 26 26 25 25 24 24 22 21 20 18 17 16 14 13 13 12 11 11 12 12 12 13 13 13 13 13 13 12 10 9
24 24 25 25 25 26 27 27 28 29 29 30 30 29 28 28 27 26 26 25 24 22 21 20 18 16 15 14 13 12 11 11 11 11 11 12 12 12 12 11 11 10 9
23 24 25 25 25 25 26 26 26 27 28 29 30 31 30 30 29 28 28 27 27 25 23 23 21 19 18 16 15 13 12 11 11 11 11 10 10 11 10 10 10 10 10
22 23 23 23 23 23 23 24 24 25 27 27 29 31 31 31 31 29 29 29 29 27 26 24 23 22 20 18 17 15 13 12 11 11 10 10 10 10 10 9 10 10 10
20 20 20 20 21 21 21 22 23 24 25 25 26 27 29 31 31 31 30 30 30 28 27 27 25 24 22 20 18 17 15 13 12 11 10 10 10 10 10 10 10 10 11
18 18 18 18 19 19 19 20 21 22 23 23 23 25 27 28 30 32 32 31 29 29 28 26 26 25 23 21 20 19 18 15 13 12 11 10 10 10 10 10 10 10 11
16 17 18 18 18 18 19 19 19 20 20 21 22 22 24 26 28 30 31 32 30 29 28 27 25 27 24 23 20 19 19 17 15 13 12 11 11 11 11 10 10 10 11
16 17 17 17 17 18 18 18 19 19 19 19 20 21 22 23 25 27 28 30 30 29 29 28 27 26 25 23 22 20 20 20 17 15 13 13 12 12 11 11 11 10 11
15 16 17 17 17 17 17 18 18 18 17 17 17 18 19 20 21 23 25 27 28 28 29 28 27 26 27 24 22 22 21 22 20 17 15 14 13 12 12 11 11 11 12
14 15 16 16 17 17 17 17 17 17 16 16 15 15 16 17 18 20 22 24 26 28 28 27 27 26 26 26 24 23 22 22 21 20 18 16 15 14 13 13 13 12 12
14 15 15 16 17 17 17 17 18 17 16 15 14 14 13 14 15 17 19 22 24 27 27 27 27 26 26 26 25 24 23 23 23 21 20 19 18 16 15 14 14 14 14
13 14 15 16 17 18 18 18 18 18 17 15 14 13 12 12 13 14 16 18 21 24 25 25 26 26 26 25 26 25 24 24 25 24 22 21 20 19 18 17 16 16 15
13 14 16 16 17 18 19 19 19 19 18 16 14 12 10 10 10 10 12 15 17 19 22 24 25 26 26 26 26 26 25 24 25 26 26 24 23 22 21 20 19 18 17
12 14 16 17 18 19 19 19 19 19 18 17 15 13 10 9 8 9 9 11 14 16 18 21 22 24 25 26 27 27 27 26 26 27 28 27 26 25 24 22 22 21 20
12 14 15 17 18 19 19 19 19 19 19 18 17 15 12 9 8 7 8 8 10 13 16 18 20 23 25 25 26 27 27 27 27 27 27 28 28 28 27 25 24 24 23
11 13 15 16 18 18 19 19 19 19 19 19 19 17 14 12 9 7 6 6 7 10 13 16 18 20 22 24 25 26 27 27 27 28 27 28 29 29 29 28 27 26 26
11 12 14 16 17 18 19 19 19 19 19 19 19 18 16 14 12 9 7 5 5 7 10 13 16 17 19 21 23 25 26 26 27 28 28 29 30 30 30 31 30 29 28
10 12 13 15 17 18 18 19 19 19 19 19 19 19 17 15 13 11 9 7 5 4 6 9 11 14 17 20 22 24 25 26 27 28 29 30 30 30 31 31 32 32 32
9 11 13 14 16 17 18 19 19 19 19 19 19 19 18 17 15 13 11 9 7 5 4 5 8 11 14 17 20 22 25 26 27 28 29 30 31 31 32 33 34 33 33
8 10 12 14 15 16 17 18 18 19 19 19 19 19 18 18 17 15 13 11 9 7 5 5 6 8 11 14 17 19 22 24 26 27 29 30 31 32 33 33 35 36 35
Wind_Direction
315 313 310 308 303 300 298 295 296 295 292 287 282 278 272 267 264 260 257 257 259 259 260 258 257 262 266 264 262 262 260 259 260 259 260 263 267 273 281 289 300 313 322
310 307 304 299 298 295 293 292 291 292 290 286 282 277 273 269 266 264 260 257 258 259 260 260 261 261 264 263 262 262 260 259 260 259 259 260 263 267 273 281 290 299 309
306 303 300 297 293 290 290 290 289 288 287 284 280 276 273 269 266 264 262 260 259 259 261 262 261 261 263 263 262 262 261 259 259 258 257 259 261 264 268 274 281 288 295
302 298 296 292 288 286 284 283 284 283 283 281 277 274 271 268 266 264 262 260 259 259 260 261 262 262 262 263 263 262 261 259 257 257 256 258 259 261 264 268 273 277 281
296 293 290 288 285 283 280 280 280 279 278 277 274 272 270 267 264 263 261 259 258 257 258 259 261 263 262 262 263 262 260 259 257 256 256 257 258 259 261 263 266 269 269
295 291 288 286 283 280 277 275 275 275 273 272 270 269 268 266 263 261 259 258 258 255 255 257 259 259 261 262 263 261 259 259 258 257 256 256 256 258 259 259 260 260 257
294 293 291 288 284 281 278 276 273 272 271 270 268 266 264 264 263 261 257 256 256 255 252 252 255 255 257 259 260 260 259 258 260 258 256 255 255 257 257 256 255 251 247
296 295 294 291 289 285 282 278 274 272 270 268 266 264 262 261 260 259 256 255 254 253 250 249 250 251 253 254 256 257 258 257 258 256 254 253 252 254 254 250 245 241 235
301 300 299 297 293 290 286 281 278 275 271 267 264 262 261 260 259 258 255 254 252 251 251 249 247 250 251 250 251 251 252 253 254 253 252 249 245 246 245 241 239 233 228
307 307 306 304 301 297 292 287 282 278 275 270 265 263 260 259 257 257 255 253 250 249 248 248 247 247 247 246 247 247 246 248 250 249 247 241 238 238 237 235 233 227 222
314 313 312 310 307 303 299 294 289 285 282 277 270 266 261 258 255 254 253 252 249 248 248 246 244 246 244 243 244 243 240 242 244 242 240 237 234 232 232 230 228 218 213
322 323 323 321 318 314 309 304 298 293 288 284 278 271 265 259 255 252 251 250 249 249 247 246 242 243 242 240 239 240 237 235 237 236 234 234 230 225 224 224 222 213 209
330 331 330 328 324 320 317 313 308 301 293 286 281 274 268 262 258 252 250 248 247 248 249 246 243 241 241 239 237 236 233 230 231 232 231 229 227 222 220 220 216 212 207
337 338 338 336 333 330 325 319 313 309 301 291 283 276 271 266 259 252 250 246 244 244 246 245 241 238 238 236 236 235 233 229 228 230 229 227 226 222 217 216 212 210 206
345 346 345 344 342 339 335 330 323 319 315 305 291 282 275 269 262 254 249 246 241 241 242 240 240 239 236 231 233 233 230 227 227 229 228 227 226 222 216 212 209 204 201
355 355 354 352 349 347 344 340 335 330 324 315 304 291 281 273 266 259 251 245 240 239 239 238 237 238 237 233 233 233 229 227 227 228 227 226 224 222 219 216 210 202 201
6 5 3 1 360 358 355 352 347 342 335 326 315 302 289 280 272 262 254 248 244 240 238 237 237 236 235 234 234 233 230 229 228 229 227 226 226 226 222 218 212 205 204
13 11 11 10 8 6 4 0 357 354 349 341 329 315 301 290 279 267 258 252 248 243 238 235 235 235 234 232 231 230 228 227 228 230 229 228 227 226 223 220 216 212 210
19 18 17 15 13 11 9 5 3 2 359 354 346 332 317 305 291 276 263 256 250 245 239 236 234 234 234 232 231 229 228 227 229 230 230 230 228 226 224 222 219 217 214
24 22 20 19 17 15 12 9 8 7 5 3 0 353 338 322 305 288 274 260 251 246 241 238 237 236 234 233 232 230 229 229 230 229 231 230 229 228 226 224 221 220 217
26 24 22 21 20 18 16 15 14 13 12 11 10 6 0 348 331 307 288 269 254 245 242 240 240 237 235 234 232 230 231 231 231 231 232 232 230 230 228 225 223 223 220
25 24 22 21 20 19 18 17 16 16 16 16 16 15 12 7 359 347 323 291 263 248 242 240 242 239 237 234 232 231 232 233 233 233 234 234 231 229 228 226 224 225 224
24 22 21 20 19 18 18 18 17 17 18 17 17 18 17 16 14 7 356 334 292 260 248 244 242 242 237 235 233 233 233 234 235 233 235 235 235 233 230 228 227 227 227
24 22 21 19 19 18 17 17 17 17 17 18 19 19 19 19 17 14 8 0 343 296 263 253 246 242 239 236 234 234 234 235 236 235 234 234 236 234 231 230 228 228 229
24 21 19 18 17 16 16 17 17 17 18 18 19 20 21 21 21 19 16 10 359 342 303 269 254 245 241 239 236 235 236 237 235 236 236 234 234 234 232 232 231 230 230
21 18 16 14 14 14 14 15 15 16 16 18 19 20 21 22 22 22 21 18 11 360 340 306 275 255 245 242 240 239 239 238 237 238 238 237 236 236 234 233 232 232 233
Height
5877 5876 5875 5874 5873 5872 5871 5870 5869 5869 5868 5868 5868 5868 5868 5868 5868 5869 5869 5870 5871 5871 5872 5872 5873 5874 5874 5875 5876 5877 5877 5878 5879 5880 5881 5882 5883 5884 5885 5885 5885 5885 5885
5875 5874 5873 5872 5871 5870 5869 5868 5867 5866 5866 5865 5865 5865 5865 5865 5866 5866 5867 5867 5868 5869 5869 5870 5870 5871 5872 5872 5873 5874 5875 5876 5876 5877 5879 5880 5881 5882 5883 5883 5884 5884 5884
5873 5872 5870 5869 5868 5867 5866 5865 5864 5863 5862 5862 5862 5862 5862 5863 5863 5863 5864 5864 5865 5866 5866 5867 5868 5868 5869 5870 5870 5871 5872 5873 5874 5875 5876 5877 5878 5879 5880 5881 5882 5882 5883
5870 5869 5867 5866 5865 5864 5863 5862 5861 5859 5859 5858 5858 5859 5859 5859 5860 5860 5861 5861 5862 5863 5863 5864 5865 5866 5866 5867 5868 5868 5869 5870 5871 5872 5873 5874 5875 5877 5878 5879 5880 5881 5881
5867 5865 5864 5863 5861 5860 5858 5857 5857 5856 5855 5855 5855 5855 5855 5855 5856 5857 5857 5858 5859 5860 5861 5861 5862 5863 5864 5864 5865 5866 5866 5867 5868 5869 5870 5872 5873 5874 5875 5876 5878 5878 5879
5863 5861 5859 5858 5857 5855 5854 5852 5852 5851 5851 5850 5850 5850 5850 5851 5852 5852 5853 5854 5855 5856 5857 5858 5859 5860 5861 5862 5863 5863 5864 5865 5865 5866 5868 5869 5870 5872 5873 5874 5875 5876 5877
5859 5857 5855 5853 5852 5850 5849 5847 5847 5846 5846 5845 5845 5845 5845 5846 5847 5848 5849 5850 5851 5852 5853 5855 5856 5857 5858 5859 5860 5861 5862 5862 5863 5864 5865 5866 5868 5869 5870 5872 5873 5874 5876
5854 5852 5850 5848 5846 5844 5843 5842 5841 5840 5840 5839 5839 5839 5840 5840 5841 5843 5844 5845 5846 5847 5849 5850 5852 5854 5855 5856 5857 5858 5859 5860 5861 5861 5863 5864 5865 5867 5868 5869 5871 5872 5874
5850 5848 5845 5843 5841 5839 5837 5836 5834 5833 5833 5832 5832 5833 5833 5834 5836 5837 5838 5840 5841 5842 5844 5846 5848 5850 5851 5853 5854 5856 5857 5857 5858 5859 5860 5862 5863 5864 5866 5867 5869 5870 5872
5846 5844 5841 5838 5836 5834 5832 5830 5829 5827 5826 5826 5826 5826 5827 5827 5829 5830 5832 5834 5835 5837 5839 5841 5843 5845 5847 5849 5851 5852 5854 5855 5856 5857 5858 5860 5861 5862 5864 5865 5867 5869 5870
5843 5840 5837 5834 5832 5829 5827 5825 5823 5821 5820 5819 5819 5819 5819 5821 5822 5824 5825 5827 5829 5831 5833 5835 5837 5840 5842 5844 5847 5849 5850 5852 5854 5855 5856 5858 5859 5860 5862 5864 5865 5867 5869
5840 5837 5834 5831 5828 5825 5822 5820 5818 5816 5815 5814 5813 5813 5813 5814 5815 5817 5818 5820 5822 5825 5827 5830 5832 5834 5837 5840 5842 5845 5847 5849 5851 5853 5854 5856 5857 5858 5860 5862 5863 5865 5867
5837 5834 5831 5828 5825 5822 5819 5816 5814 5811 5810 5808 5807 5807 5807 5807 5808 5810 5811 5813 5816 5819 5822 5824 5827 5829 5832 5835 5838 5841 5843 5846 5848 5850 5852 5854 5855 5856 5858 5860 5862 5864 5866
5835 5831 5828 5825 5822 5819 5816 5813 5810 5807 5805 5803 5802 5801 5801 5801 5802 5803 5805 5807 5810 5813 5816 5819 5822 5824 5827 5830 5833 5836 5839 5842 5845 5847 5849 5851 5853 5854 5856 5858 5860 5862 5864
5833 5830 5826 5823 5820 5816 5813 5809 5806 5803 5800 5798 5796 5795 5795 5795 5796 5797 5799 5801 5804 5806 5810 5813 5816 5819 5822 5825 5829 5832 5835 5838 5842 5844 5847 5849 5851 5852 5854 5856 5858 5860 5863
5831 5828 5825 5822 5818 5814 5811 5807 5804 5800 5797 5794 5792 5791 5790 5790 5791 5792 5793 5795 5798 5800 5803 5807 5810 5814 5817 5820 5824 5828 5831 5834 5838 5841 5844 5846 5848 5850 5852 5854 5857 5859 5861
5830 5827 5824 5821 5817 5813 5809 5805 5802 5798 5795 5792 5789 5787 5787 5786 5786 5787 5788 5790 5792 5795 5798 5801 5805 5808 5812 5815 5819 5823 5826 5829 5833 5837 5840 5843 5846 5848 5850 5852 5855 5857 5859
5830 5827 5824 5820 5816 5812 5809 5805 5801 5797 5793 5790 5787 5785 5784 5783 5783 5783 5784 5785 5787 5790 5793 5796 5799 5803 5807 5810 5814 5818 5821 5825 5828 5832 5836 5839 5842 5845 5848 5850 5852 5855 5857
5830 5827 5823 5820 5816 5812 5808 5805 5801 5797 5793 5789 5786 5783 5781 5780 5780 5780 5781 5782 5783 5785 5788 5791 5794 5798 5802 5805 5809 5813 5816 5820 5824 5827 5831 5835 5838 5841 5844 5847 5850 5852 5855
5830 5827 5824 5820 5816 5813 5809 5805 5801 5797 5793 5789 5785 5782 5780 5779 5778 5778 5778 5778 5780 5782 5784 5787 5790 5793 5797 5800 5804 5808 5811 5815 5819 5822 5826 5830 5833 5837 5840 5843 5846 5849 5852
5830 5827 5824 5821 5817 5813 5810 5806 5802 5798 5794 5790 5786 5783 5780 5778 5777 5776 5776 5776 5777 5778 5781 5783 5786 5789 5792 5795 5799 5803 5806 5810 5814 5817 5821 5825 5829 5832 5836 5839 5842 5845 5848
5830 5827 5824 5821 5818 5814 5811 5807 5803 5799 5795 5791 5787 5784 5781 5778 5776 5775 5775 5774 5775 5776 5778 5780 5782 5784 5787 5791 5794 5798 5801 5806 5809 5812 5816 5820 5823 5827 5830 5834 5838 5841 5844
5830 5827 5825 5822 5819 5815 5812 5808 5804 5801 5797 5793 5789 5785 5782 5779 5777 5775 5774 5774 5773 5774 5775 5777 5778 5780 5783 5786 5789 5793 5797 5800 5803 5807 5811 5814 5817 5821 5825 5829 5833 5836 5840
5830 5827 5825 5822 5819 5816 5813 5809 5806 5802 5798 5794 5791 5787 5784 5780 5778 5776 5774 5773 5773 5773 5773 5774 5775 5777 5779 5782 5785 5788 5792 5795 5798 5802 5805 5808 5812 5815 5819 5823 5827 5830 5834
5830 5828 5825 5823 5820 5817 5814 5810 5807 5803 5800 5796 5792 5789 5785 5782 5779 5777 5775 5774 5773 5772 5772 5772 5773 5774 5776 5778 5781 5784 5787 5790 5793 5796 5799 5803 5806 5809 5813 5816 5820 5824 5827
5829 5827 5825 5823 5820 5817 5814 5811 5808 5805 5801 5798 5794 5791 5787 5784 5781 5778 5776 5774 5773 5772 5771 5771 5771 5772 5773 5775 5777 5779 5781 5784 5787 5790 5793 5796 5800 5803 5806 5810 5813 5817 5820